Location: Unspecified
(0.0000°N, 0.0000°E)
Time: 19:03:41
(UTC+00:00)

Envisat - Pass Details

Date: 07 July 2018
Orbit: 764 x 766 km, 98.1° (Epoch: 20 October)

Event Time Altitude Azimuth Distance (km) Brightness Sun altitude
Exits shadow 19:38:46 42° 150° (SSE) 1,088 3.4 -21.6°
Maximum altitude 19:40:29 72° 78° (ENE) 805 2.9 -21.9°
Drops below altitude 10° 19:45:30 10° 354° (N) 2,290 5.8 -23.1°
Sets 19:47:48 0° 352° (N) 3,213 6.7 -23.6°
